Location: Melbourne
(37.8170°S, 144.9670°E)
Time: 14:09:04
(UTC+11:00)

Vanguard 1 Rocket - Visible Passes

Search period start: 29 March 2015 00:00
Search period end: 07 April 2015 23:00
Orbit: 656 x 4223 km, 34.3° (Epoch: 25 March)

Date Brightness Start Highest point End Pass type
(mag) Time Alt. Az. Time Alt. Az. Time Alt. Az.
29 Mar 10.4 00:21:27 10° W 01:02:31 23° E 01:08:27 10° E visible
29 Mar 10.4 02:50:56 10° W 03:19:56 60° N 03:38:01 10° NE visible
29 Mar 10.7 05:37:22 28° WNW 05:46:04 33° NW 06:01:33 10° N visible
29 Mar 9.9 20:44:52 10° NW 20:57:01 53° NNE 21:10:58 25° E visible
29 Mar 10.1 23:09:37 10° WNW 23:27:03 79° N 23:28:14 78° NE visible
30 Mar 10.9 01:37:37 10° W 02:14:08 39° ENE 02:25:29 10° ENE visible
30 Mar 10.5 04:31:34 47° NW 04:32:45 47° NW 04:51:57 10° NNE visible
30 Mar 11.2 06:49:14 10° W 07:01:09 14° NW 07:08:37 10° NNW visible
30 Mar 10.0 19:35:39 10° NNW 19:45:20 36° NE 20:02:34 10° E visible
30 Mar 9.9 21:58:31 10° WNW 22:13:00 72° NNE 22:20:54 50° E visible
31 Mar 10.4 00:25:05 10° W 01:08:19 17° ENE 01:11:46 10° ENE visible
31 Mar 10.6 02:54:27 10° W 03:25:43 49° NNE 03:40:54 10° NE visible
31 Mar 10.9 05:43:09 25° WNW 05:48:38 27° NW 06:03:07 10° N visible
31 Mar 9.8 20:48:09 10° NW 21:00:04 59° NNE 21:13:30 27° E visible
31 Mar 10.0 23:13:16 10° W 23:30:24 80° N 23:30:46 80° NNE visible
01 Apr 11.0 01:41:12 10° W 02:19:49 31° NE 02:28:34 10° ENE visible
01 Apr 10.7 04:37:13 39° NNW 04:37:13 39° NNW 04:54:10 10° NNE visible
01 Apr 9.8 19:38:35 10° NNW 19:48:14 43° NE 20:06:06 10° ESE visible
01 Apr 9.8 22:02:07 10° WNW 22:16:19 76° NNE 22:23:21 54° E visible
02 Apr 10.4 00:28:44 10° W 01:13:49 12° ENE 01:14:59 10° ENE visible
02 Apr 10.8 03:31:13 39° NNE 03:31:13 39° NNE 03:43:30 10° NE visible
02 Apr 11.1 05:48:37 21° WNW 05:51:16 21° NW 06:03:52 10° NNW visible
02 Apr 9.7 20:51:36 10° NW 21:03:16 66° NNE 21:15:54 29° E visible
02 Apr 10.0 23:16:58 10° W 23:33:09 80° NNW 23:33:09 80° NNW visible
03 Apr 11.1 01:44:47 10° W 02:25:06 24° NE 02:31:26 10° NE visible
03 Apr 10.9 04:42:30 31° NNW 04:42:30 31° NNW 04:55:57 10° N visible
03 Apr 9.6 19:41:47 10° NW 19:51:17 50° NNE 20:08:27 12° E visible
03 Apr 9.8 22:05:46 10° WNW 22:19:43 79° N 22:25:42 58° ENE visible
04 Apr 10.5 00:32:24 10° W 01:18:54 - ENE 00:42:57 48° W visible
04 Apr 11.0 03:36:17 30° N 03:36:17 30° N 03:45:48 10° NNE visible
04 Apr 11.3 05:53:40 15° NW 05:54:02 15° NW 06:03:06 10° NNW visible
04 Apr 9.6 20:55:10 10° WNW 21:06:35 71° NNE 21:18:14 32° E visible
04 Apr 10.0 23:20:39 10° W 23:35:30 76° NW 23:35:30 76° NW visible
05 Apr 11.2 01:48:26 10° W 02:29:58 19° NE 02:34:04 10° NE visible
05 Apr 11.1 03:47:20 23° NNW 03:47:20 23° NNW 03:57:08 10° N visible
05 Apr 9.4 18:45:10 10° NW 18:54:28 57° NNE 19:10:47 14° E visible
05 Apr 9.8 21:09:30 10° W 21:23:10 80° N 21:28:02 62° ENE visible
05 Apr 10.6 23:36:03 10° W 00:23:33 - NE 23:45:18 42° W visible
06 Apr 11.3 02:40:54 23° N 02:40:54 23° N 02:47:41 10° NNE visible
06 Apr 9.5 19:58:50 10° WNW 20:10:01 75° NNE 20:20:35 35° E visible
06 Apr 10.0 22:24:22 10° W 22:37:51 70° NW 22:37:51 70° NW visible
07 Apr 11.3 00:52:11 10° W 01:34:22 14° NNE 01:36:23 10° NE visible
07 Apr 11.4 03:51:43 16° NNW 03:51:43 16° NNW 03:57:23 10° N visible
07 Apr 9.3 18:48:41 10° WNW 18:57:47 64° NNE 19:13:09 16° E visible
07 Apr 9.7 21:13:14 10° W 21:26:38 79° N 21:30:25 66° ENE visible
